Nellis AFB, NV

7:36 PM PST on December 08, 2019 (GMT -0800)
Nellis Air Force Base

Weather History for KLSV - October, 2019

Change the Weather History Date:

Saturday, October 5, 2019

  Actual Average Record
Temperature  
Mean Temperature 72 °F -  
Max Temperature 85 °F 86 °F 95 °F (1996)
Min Temperature 60 °F 59 °F 52 °F (2016)
Cooling Degree Days 7    
Growing Degree Days 22 (Base 50)    
Moisture  
Dew Point 13 °F    
Average Humidity 10    
Maximum Humidity 15    
Minimum Humidity 7    
Precipitation  
Precipitation 0.00 in - - ()
Sea Level Pressure  
Sea Level Pressure 30.00 in    
Wind  
Wind Speed 5 mph (NE)    
Max Wind Speed 15 mph    
Max Gust Speed 22 mph    
Visibility 10 miles    
Events      
Averages and records for this station are not official NWS values.
T = Trace of Precipitation, MM = Missing Value Source: NWS Daily Summary

Daily Weather History Graph

Daily Weather History Graph

Search for Another Location

Airport or City:

Astronomy

Oct. 05, 2019 Rise Set
Actual Time 6:38 AM PDT 6:18 PM PDT
Civil Twilight 6:12 AM PDT 6:43 PM PDT
Nautical Twilight 5:42 AM PDT 7:13 PM PDT
Astronomical Twilight 5:13 AM PDT 7:43 PM PDT
Moon 1:58 PM PDT (10/5) 11:54 PM PDT (10/5)
Length of Visible Light 12h 31m
Length of Day
11h 39m
Waxing Crescent, 51% of the Moon is Illuminated
Oct 5
Waxing Crescent
Oct 13
Full
Oct 21
Last Quarter
Oct 27
New
Nov 4
First Quarter

Hourly Weather History & Observations

Time (PDT) Temp. Dew Point Humidity Pressure Visibility Wind Dir Wind Speed Gust Speed Precip Events Conditions
12:55 AM 63.0 °F 9.9 °F 12% 29.94 in 10.0 mi East 1.2 mph - N/A   Clear
1:58 AM 69.6 °F 5.7 °F 8% 29.98 in 10.0 mi NE 8.1 mph - N/A   Clear
2:55 AM 70.7 °F 9.0 °F 9% 29.95 in 10.0 mi NNE 13.8 mph 21.9 mph N/A   Clear
3:55 AM 67.8 °F 9.9 °F 10% 29.97 in 10.0 mi Variable 6.9 mph - N/A   Clear
4:55 AM 66.2 °F 10.4 °F 11% 29.99 in 10.0 mi ENE 6.9 mph - N/A   Clear
5:55 AM 64.2 °F 8.4 °F 11% 30.02 in 10.0 mi Variable 1.2 mph - N/A   Clear
6:58 AM 62.2 °F 14.0 °F 15% 30.06 in 10.0 mi South 3.5 mph - N/A   Clear
8:58 AM 67.6 °F 16.7 °F 14% 30.12 in 10.0 mi Calm Calm - N/A   Clear
9:58 AM 73.0 °F 15.4 °F 11% 30.11 in 10.0 mi North 9.2 mph - N/A   Clear
10:58 AM 75.6 °F 17.4 °F 11% 30.10 in 10.0 mi NE 15.0 mph - N/A   Clear
11:58 AM 78.3 °F 14.7 °F 9% 30.11 in 10.0 mi NE 11.5 mph - N/A   Clear
12:58 PM 79.7 °F 13.1 °F 8% 30.08 in 10.0 mi NE 9.2 mph - N/A   Clear
1:58 PM 81.7 °F 11.7 °F 7% 30.00 in 10.0 mi NE 9.2 mph - N/A   Clear
2:58 PM 82.9 °F 12.6 °F 7% 29.97 in 10.0 mi North 6.9 mph - N/A   Clear
3:58 PM 84.2 °F 13.5 °F 7% 29.95 in 10.0 mi West 3.5 mph - N/A   Clear
3:59 PM 84.4 °F 13.6 °F 7% 29.92 in 10.0 mi Calm Calm - N/A   Clear
4:58 PM 84.4 °F 13.6 °F 7% 29.94 in 10.0 mi SSW 3.5 mph - N/A   Clear
5:58 PM 82.2 °F 15.1 °F 8% 29.93 in 10.0 mi Calm Calm - N/A   Clear
6:58 PM 79.7 °F 15.8 °F 9% 29.94 in 10.0 mi East 1.2 mph - N/A   Clear
7:58 PM 72.5 °F 14.9 °F 11% 29.96 in 10.0 mi NNE 4.6 mph - N/A   Clear
8:58 PM 70.0 °F 13.1 °F 11% 29.97 in 10.0 mi NE 2.3 mph - N/A   Clear
9:58 PM 64.4 °F 12.4 °F 13% 29.98 in 10.0 mi SE 2.3 mph - N/A   Clear
10:58 PM 60.8 °F 12.7 °F 15% 29.98 in 10.0 mi NE 3.5 mph - N/A   Clear
11:58 PM 60.1 °F 12.2 °F 15% 29.99 in 10.0 mi East 1.2 mph - N/A   Clear